Location: McFarlands Corners
(41.4117°N, 81.3382°W)
Time: 17:37:17
(UTC+00:00)

A-11 Canister half - All Passes

Search period start: 16 February 2026 00:00
Search period end: 26 February 2026 00:00
Orbit: 1512 x 1687 km, 47.2° (Epoch: 16 February)

Date Brightness Start Highest point End Pass type
(mag) Time Alt. Az. Time Alt. Az. Time Alt. Az.
16 Feb - 01:27:36 10° SSW 01:36:47 40° SE 01:45:50 10° ENE visible
16 Feb - 03:31:04 10° WSW 03:41:17 87° NNW 03:51:13 10° ENE visible
16 Feb - 05:37:06 10° W 05:47:04 63° N 05:56:41 10° E night (unlit)
16 Feb - 07:42:58 10° WNW 07:52:55 81° NNE 08:02:26 10° ESE visible
16 Feb - 09:48:27 10° WNW 09:57:25 44° SW 10:06:05 10° SSE visible
17 Feb - 01:04:45 10° SSW 01:13:47 38° SE 01:22:42 10° ENE visible
17 Feb - 03:07:57 10° WSW 03:18:11 90° NNW 03:28:09 10° ENE visible
17 Feb - 05:13:56 10° W 05:23:56 63° N 05:33:35 10° ENE visible
17 Feb - 07:19:52 10° WNW 07:29:50 79° NNE 07:39:23 10° ESE visible
17 Feb - 09:25:18 10° WNW 09:34:25 47° SW 09:43:14 10° SSE visible
17 Feb - 11:35:33 10° WSW 11:37:23 11° WSW 11:39:12 10° SW visible
18 Feb - 00:41:54 10° SSW 00:50:47 36° SE 00:59:33 10° ENE visible
18 Feb - 02:44:52 10° WSW 02:55:06 87° SSE 03:05:05 10° ENE visible
18 Feb - 04:50:47 10° W 05:00:48 63° N 05:10:30 10° ENE visible
18 Feb - 06:56:44 10° WNW 07:06:45 77° NNE 07:16:19 10° ESE visible
18 Feb - 09:02:10 10° WNW 09:11:26 50° SW 09:20:21 10° SSE visible
18 Feb - 11:11:13 10° W 11:14:28 12° WSW 11:17:43 10° SW visible
19 Feb - 00:19:06 10° S 00:27:47 33° SE 00:36:23 10° ENE visible
19 Feb - 02:21:47 10° WSW 02:32:00 85° SSE 02:42:01 10° ENE visible
19 Feb - 04:27:36 10° W 04:37:40 64° N 04:47:24 10° ENE visible
19 Feb - 06:33:38 10° WNW 06:43:38 75° NNE 06:53:16 10° ESE visible
19 Feb - 08:39:03 10° WNW 08:48:26 53° SW 08:57:28 10° SSE visible
19 Feb - 10:47:22 10° W 10:51:34 14° WSW 10:55:42 10° SSW visible
19 Feb - 23:56:19 10° S 00:04:47 31° SE 00:13:11 10° ENE visible
20 Feb - 01:58:44 10° SW 02:08:55 82° SSE 02:18:57 10° ENE visible
20 Feb - 04:04:27 10° W 04:14:32 64° N 04:24:18 10° ENE visible
20 Feb - 06:10:30 10° WNW 06:20:33 73° NNE 06:30:11 10° ESE night (unlit)
20 Feb - 08:15:56 10° WNW 08:25:26 56° SW 08:34:34 10° SE visible
20 Feb - 10:23:44 10° W 10:28:39 15° WSW 10:33:30 10° SSW visible
20 Feb - 23:33:33 10° S 23:41:48 29° SE 23:50:00 10° ENE visible
21 Feb - 01:35:40 10° SW 01:45:51 79° SSE 01:55:53 10° ENE visible
21 Feb - 03:41:17 10° W 03:51:24 65° N 04:01:14 10° ENE visible
21 Feb - 05:47:22 10° WNW 05:57:27 72° NNE 06:07:06 10° E visible
21 Feb - 07:52:48 10° WNW 08:02:25 60° SW 08:11:39 10° SE visible
21 Feb - 10:00:12 10° W 10:05:44 17° WSW 10:11:10 10° SSW visible
21 Feb - 23:10:50 10° S 23:18:49 27° SE 23:26:46 10° ENE daylight
22 Feb - 01:12:37 10° SW 01:22:47 76° SSE 01:32:48 10° ENE visible
22 Feb - 03:18:07 10° W 03:28:15 66° N 03:38:07 10° ENE visible
22 Feb - 05:24:15 10° WNW 05:34:19 70° NNE 05:44:01 10° E visible
22 Feb - 07:29:42 10° WNW 07:39:24 63° SW 07:48:43 10° SE visible
22 Feb - 09:36:46 10° W 09:42:48 19° SW 09:48:44 10° SSW visible
22 Feb - 22:48:09 10° S 22:55:51 25° SE 23:03:31 10° ENE daylight
23 Feb - 00:49:35 10° SW 00:59:43 73° SE 01:09:44 10° ENE visible
23 Feb - 02:54:58 10° W 03:05:07 67° NNW 03:15:02 10° ENE visible
23 Feb - 05:01:07 10° WNW 05:11:12 69° NNE 05:20:56 10° E visible
23 Feb - 07:06:34 10° WNW 07:16:23 66° SW 07:25:47 10° SE night (unlit)
23 Feb - 09:13:22 10° W 09:19:52 20° SW 09:26:15 10° SSW visible
23 Feb - 22:25:30 10° S 22:32:52 23° SE 22:40:14 10° E daylight
24 Feb - 00:26:34 10° SW 00:36:39 69° SE 00:46:39 10° ENE visible
24 Feb - 02:31:49 10° W 02:41:59 68° NNW 02:51:57 10° ENE visible
24 Feb - 04:37:59 10° WNW 04:48:05 68° NNE 04:57:49 10° E visible
24 Feb - 06:43:28 10° WNW 06:53:21 69° SW 07:02:49 10° SE night (unlit)
24 Feb - 08:50:02 10° W 08:56:57 22° SW 09:03:42 10° S visible
24 Feb - 22:02:53 10° S 22:09:54 22° SE 22:16:55 10° E daylight
25 Feb - 00:03:34 10° SW 00:13:35 66° SE 00:23:34 10° ENE visible
25 Feb - 02:08:40 10° W 02:18:51 69° NNW 02:28:51 10° ENE visible
25 Feb - 04:14:51 10° WNW 04:24:57 67° N 04:34:44 10° E visible
25 Feb - 06:20:22 10° WNW 06:30:18 73° SW 06:39:51 10° SE visible
25 Feb - 08:26:43 10° WNW 08:34:00 24° SW 08:41:06 10° S night (unlit)
25 Feb - 21:40:20 10° SSE 21:46:56 20° SE 21:53:34 10° E daylight
